Snow/Ice From: 16-12-2017 16:00 Until: 17-12-2017 16:00 warning for: Snow/Ice Level: Yellow info button

Although rather usual in this region, locally or potentially dangerous phenomena are expected. (such as local winds, summer thunderstorms, rising streams or high waves) Be aware and pay attention to the latest weather updates, especially if you carry out activities exposed to weather or close to a stream or shoreline. 


Meteo18 Weather Cam more information Meteo18 Weather Cam


Thunder radar more information blitzortung!


warning for Snow/Ice more information rain snow radar


Visit our other weather sites:

Template documentation
and downloads

And another site



Weather Underground History page Text

Daily Summary for July 28, 2017 Units:  Metric    English   Both
« Previous Day
Next Day »
Daily Weekly Monthly Yearly Custom
  High: Low: Average:
Temperature: 23.1 °C 14.0 °C 18.3 °C
Dew Point: 16.4 °C 12.0 °C 13.1 °C
Humidity: 90 % 52 % 73 %
Wind Speed: 19.3 km/h 0.0 km/h 5.4 km/h
Wind Gust: 24.1 km/h - -
Wind:- - WSW
Pressure: 1018.8 hPa 1014.4 hPa -
Precipitation: 0.0 mm    
Historical Graphs
 
 
Tabular Data for July 28, 2017
Time Temperature Dew Point Pressure Wind Wind Speed Wind Gust Humidity Rainfall Rate (Hourly)
00:02 17.9 °C 16.2 °C 1014.4 hPa Calm     90 % 0.0 mm
00:12 18.1 °C 16.4 °C 1014.4 hPa Calm   1.6 km/h 90 % 0.0 mm
00:17 18.1 °C 16.3 °C 1014.4 hPa Calm   1.6 km/h 89 % 0.0 mm
00:22 18.0 °C 16.2 °C 1014.4 hPa SW 1.6 km/h 1.6 km/h 89 % 0.0 mm
00:32 17.8 °C 15.4 °C 1014.4 hPa SW 3.2 km/h 3.2 km/h 86 % 0.0 mm
00:42 17.9 °C 15.0 °C 1014.4 hPa Calm   4.8 km/h 83 % 0.0 mm
00:52 17.8 °C 14.9 °C 1014.4 hPa WSW 1.6 km/h 4.8 km/h 83 % 0.0 mm
00:57 17.8 °C 14.9 °C 1014.8 hPa WSW 1.6 km/h 4.8 km/h 83 % 0.0 mm
01:02 17.7 °C 14.8 °C 1014.8 hPa WSW 3.2 km/h 4.8 km/h 83 % 0.0 mm
01:07 17.7 °C 14.6 °C 1014.8 hPa WSW 1.6 km/h 3.2 km/h 82 % 0.0 mm
01:12 17.6 °C 14.5 °C 1014.8 hPa West 4.8 km/h 4.8 km/h 82 % 0.0 mm
01:17 17.5 °C 14.2 °C 1014.8 hPa West 1.6 km/h 6.4 km/h 81 % 0.0 mm
01:22 17.4 °C 13.9 °C 1014.8 hPa West 3.2 km/h 8.0 km/h 80 % 0.0 mm
01:32 17.2 °C 13.9 °C 1014.8 hPa WSW 1.6 km/h 8.0 km/h 81 % 0.0 mm
01:37 17.1 °C 13.8 °C 1015.1 hPa WSW 4.8 km/h 6.4 km/h 81 % 0.0 mm
01:42 17.1 °C 13.8 °C 1015.1 hPa WSW 4.8 km/h 6.4 km/h 81 % 0.0 mm
01:47 17.0 °C 13.7 °C 1015.1 hPa WSW 3.2 km/h 6.4 km/h 81 % 0.0 mm
01:52 16.9 °C 13.6 °C 1015.1 hPa Calm   6.4 km/h 81 % 0.0 mm
01:57 16.9 °C 13.8 °C 1015.1 hPa WSW 1.6 km/h 6.4 km/h 82 % 0.0 mm
02:02 16.8 °C 13.7 °C 1015.5 hPa SW 1.6 km/h 4.8 km/h 82 % 0.0 mm
02:07 16.8 °C 13.7 °C 1015.5 hPa WSW 1.6 km/h 4.8 km/h 82 % 0.0 mm
02:12 16.7 °C 13.6 °C 1015.5 hPa Calm   4.8 km/h 82 % 0.0 mm
02:17 16.6 °C 13.7 °C 1015.5 hPa West 1.6 km/h 4.8 km/h 83 % 0.0 mm
02:22 16.4 °C 13.5 °C 1015.5 hPa WSW 1.6 km/h 4.8 km/h 83 % 0.0 mm
02:27 16.4 °C 13.5 °C 1015.5 hPa WSW 1.6 km/h 4.8 km/h 83 % 0.0 mm
02:32 16.3 °C 13.4 °C 1015.5 hPa Calm   4.8 km/h 83 % 0.0 mm
02:42 16.1 °C 13.2 °C 1015.5 hPa Calm   4.8 km/h 83 % 0.0 mm
02:47 16.1 °C 13.2 °C 1015.5 hPa SW 3.2 km/h 3.2 km/h 83 % 0.0 mm
02:52 15.9 °C 13.0 °C 1015.5 hPa West 3.2 km/h 8.0 km/h 83 % 0.0 mm
03:02 15.8 °C 12.9 °C 1015.8 hPa West 3.2 km/h 8.0 km/h 83 % 0.0 mm
03:12 15.7 °C 12.8 °C 1015.5 hPa WSW 3.2 km/h 6.4 km/h 83 % 0.0 mm
03:17 15.6 °C 12.7 °C 1015.5 hPa West 1.6 km/h 6.4 km/h 83 % 0.0 mm
03:22 15.6 °C 12.7 °C 1015.5 hPa West 1.6 km/h 6.4 km/h 83 % 0.0 mm
03:27 15.4 °C 12.7 °C 1015.5 hPa WSW 1.6 km/h 6.4 km/h 84 % 0.0 mm
03:32 15.4 °C 12.7 °C 1015.5 hPa West 1.6 km/h 6.4 km/h 84 % 0.0 mm
03:37 15.3 °C 12.6 °C 1015.5 hPa West 3.2 km/h 6.4 km/h 84 % 0.0 mm
03:42 15.2 °C 12.5 °C 1015.5 hPa West 3.2 km/h 6.4 km/h 84 % 0.0 mm
03:52 15.0 °C 12.5 °C 1015.5 hPa West 4.8 km/h 8.0 km/h 85 % 0.0 mm
03:57 14.9 °C 12.4 °C 1015.8 hPa WSW 1.6 km/h 8.0 km/h 85 % 0.0 mm
04:02 15.0 °C 12.5 °C 1015.8 hPa West 6.4 km/h 8.0 km/h 85 % 0.0 mm
04:12 15.0 °C 12.5 °C 1015.8 hPa West 1.6 km/h 9.7 km/h 85 % 0.0 mm
04:17 14.9 °C 12.4 °C 1015.8 hPa WSW 1.6 km/h 9.7 km/h 85 % 0.0 mm
04:22 14.9 °C 12.4 °C 1015.8 hPa WNW 4.8 km/h 9.7 km/h 85 % 0.0 mm
04:27 14.9 °C 12.4 °C 1016.1 hPa West 3.2 km/h 6.4 km/h 85 % 0.0 mm
04:32 14.9 °C 12.6 °C 1016.1 hPa West 3.2 km/h 6.4 km/h 86 % 0.0 mm
04:37 14.9 °C 12.4 °C 1016.1 hPa WSW 3.2 km/h 6.4 km/h 85 % 0.0 mm
04:47 14.9 °C 12.4 °C 1016.1 hPa West 3.2 km/h 8.0 km/h 85 % 0.0 mm
04:52 14.9 °C 12.6 °C 1016.1 hPa WSW 4.8 km/h 8.0 km/h 86 % 0.0 mm
04:57 14.9 °C 12.6 °C 1016.1 hPa West 3.2 km/h 8.0 km/h 86 % 0.0 mm
05:02 15.0 °C 12.5 °C 1016.1 hPa West 11.3 km/h 11.3 km/h 85 % 0.0 mm
05:12 15.1 °C 12.6 °C 1016.1 hPa WSW 4.8 km/h 11.3 km/h 85 % 0.0 mm
05:17 15.1 °C 12.6 °C 1016.1 hPa NW 3.2 km/h 11.3 km/h 85 % 0.0 mm
05:27 15.0 °C 12.5 °C 1016.1 hPa WSW 4.8 km/h 12.9 km/h 85 % 0.0 mm
05:32 15.0 °C 12.5 °C 1016.1 hPa WSW 3.2 km/h 12.9 km/h 85 % 0.0 mm
05:42 14.9 °C 12.4 °C 1016.1 hPa West 1.6 km/h 12.9 km/h 85 % 0.0 mm
05:47 14.8 °C 12.5 °C 1016.5 hPa Calm   12.9 km/h 86 % 0.0 mm
05:57 14.6 °C 12.5 °C 1016.5 hPa WSW 6.4 km/h 9.7 km/h 87 % 0.0 mm
06:02 14.6 °C 12.5 °C 1016.5 hPa West 1.6 km/h 9.7 km/h 87 % 0.0 mm
06:12 14.5 °C 12.4 °C 1016.8 hPa WSW 1.6 km/h 9.7 km/h 87 % 0.0 mm
06:17 14.5 °C 12.2 °C 1016.8 hPa West 4.8 km/h 9.7 km/h 86 % 0.0 mm
06:22 14.4 °C 12.3 °C 1016.8 hPa West 4.8 km/h 14.5 km/h 87 % 0.0 mm
06:32 14.3 °C 12.2 °C 1016.8 hPa West 3.2 km/h 14.5 km/h 87 % 0.0 mm
06:42 14.2 °C 12.1 °C 1017.2 hPa SW 4.8 km/h 11.3 km/h 87 % 0.0 mm
06:47 14.2 °C 12.1 °C 1017.2 hPa SSW 4.8 km/h 11.3 km/h 87 % 0.0 mm
06:52 14.2 °C 12.1 °C 1017.2 hPa WSW 4.8 km/h 9.7 km/h 87 % 0.0 mm
07:02 14.1 °C 12.1 °C 1017.2 hPa SW 6.4 km/h 9.7 km/h 88 % 0.0 mm
07:12 14.0 °C 12.0 °C 1017.2 hPa SW 6.4 km/h 11.3 km/h 88 % 0.0 mm
07:17 14.0 °C 12.2 °C 1017.2 hPa SW 6.4 km/h 11.3 km/h 89 % 0.0 mm
07:22 14.0 °C 12.2 °C 1017.2 hPa West 6.4 km/h 9.7 km/h 89 % 0.0 mm
07:32 14.0 °C 12.2 °C 1017.2 hPa Calm   11.3 km/h 89 % 0.0 mm
07:37 14.1 °C 12.3 °C 1017.2 hPa SW 6.4 km/h 11.3 km/h 89 % 0.0 mm
07:42 14.1 °C 12.3 °C 1017.2 hPa SSW 3.2 km/h 9.7 km/h 89 % 0.0 mm
07:47 14.2 °C 12.4 °C 1017.5 hPa WSW 1.6 km/h 9.7 km/h 89 % 0.0 mm
07:52 14.2 °C 12.2 °C 1017.5 hPa WSW 4.8 km/h 9.7 km/h 88 % 0.0 mm
07:57 14.2 °C 12.2 °C 1017.5 hPa South 3.2 km/h 9.7 km/h 88 % 0.0 mm
08:02 14.3 °C 12.5 °C 1017.5 hPa SW 6.4 km/h 9.7 km/h 89 % 0.0 mm
08:12 14.3 °C 12.5 °C 1017.8 hPa West 4.8 km/h 8.0 km/h 89 % 0.0 mm
08:17 14.3 °C 12.3 °C 1017.8 hPa WSW 6.4 km/h 8.0 km/h 88 % 0.0 mm
08:22 14.4 °C 12.4 °C 1017.8 hPa West 6.4 km/h 11.3 km/h 88 % 0.0 mm
08:32 14.7 °C 12.7 °C 1018.2 hPa WNW 6.4 km/h 11.3 km/h 88 % 0.0 mm
08:37 14.8 °C 12.8 °C 1018.2 hPa WNW 4.8 km/h 11.3 km/h 88 % 0.0 mm
08:42 14.8 °C 12.7 °C 1018.5 hPa West 6.4 km/h 14.5 km/h 87 % 0.0 mm
08:52 14.9 °C 12.9 °C 1018.5 hPa West 4.8 km/h 14.5 km/h 88 % 0.0 mm
08:57 14.9 °C 12.9 °C 1018.5 hPa WSW 3.2 km/h 14.5 km/h 88 % 0.0 mm
09:02 14.9 °C 12.9 °C 1018.5 hPa West 3.2 km/h 14.5 km/h 88 % 0.0 mm
09:12 15.0 °C 12.9 °C 1018.5 hPa WSW 3.2 km/h 14.5 km/h 87 % 0.0 mm
09:17 15.1 °C 13.1 °C 1018.5 hPa SW 9.7 km/h 14.5 km/h 88 % 0.0 mm
09:22 15.1 °C 13.1 °C 1018.5 hPa WSW 9.7 km/h 12.9 km/h 88 % 0.0 mm
09:27 15.1 °C 13.0 °C 1018.5 hPa West 4.8 km/h 12.9 km/h 87 % 0.0 mm
09:37 15.4 °C 13.4 °C 1018.5 hPa SW 4.8 km/h 11.3 km/h 88 % 0.0 mm
09:42 15.5 °C 13.3 °C 1018.5 hPa WSW 8.0 km/h 11.3 km/h 87 % 0.0 mm
09:52 15.4 °C 13.2 °C 1018.5 hPa WSW 9.7 km/h 16.1 km/h 87 % 0.0 mm
10:02 15.6 °C 13.4 °C 1018.5 hPa SW 1.6 km/h 17.7 km/h 87 % 0.0 mm
10:12 15.8 °C 13.5 °C 1018.8 hPa West 6.4 km/h 19.3 km/h 86 % 0.0 mm
10:17 15.9 °C 13.4 °C 1018.8 hPa SW 4.8 km/h 19.3 km/h 85 % 0.0 mm
10:22 16.2 °C 13.7 °C 1018.8 hPa WSW 8.0 km/h 17.7 km/h 85 % 0.0 mm
10:32 16.7 °C 13.8 °C 1018.8 hPa West 3.2 km/h 20.9 km/h 83 % 0.0 mm
10:42 16.8 °C 13.5 °C 1018.8 hPa West 6.4 km/h 20.9 km/h 81 % 0.0 mm
10:52 16.9 °C 13.8 °C 1018.8 hPa SSW 6.4 km/h 16.1 km/h 82 % 0.0 mm
10:57 17.1 °C 13.8 °C 1018.8 hPa WSW 8.0 km/h 16.1 km/h 81 % 0.0 mm
11:02 17.2 °C 14.1 °C 1018.5 hPa SSW 8.0 km/h 16.1 km/h 82 % 0.0 mm
11:12 17.4 °C 13.7 °C 1018.5 hPa WSW 6.4 km/h 16.1 km/h 79 % 0.0 mm
11:17 17.5 °C 13.6 °C 1018.5 hPa SW 11.3 km/h 16.1 km/h 78 % 0.0 mm
11:22 17.7 °C 13.6 °C 1018.5 hPa West 8.0 km/h 17.7 km/h 77 % 0.0 mm
11:27 18.0 °C 13.9 °C 1018.5 hPa WSW 6.4 km/h 17.7 km/h 77 % 0.0 mm
11:32 18.2 °C 13.7 °C 1018.5 hPa SSW 6.4 km/h 17.7 km/h 75 % 0.0 mm
11:42 18.3 °C 13.6 °C 1018.5 hPa SSW 6.4 km/h 14.5 km/h 74 % 0.0 mm
11:47 18.7 °C 14.6 °C 1018.5 hPa SW 9.7 km/h 14.5 km/h 77 % 0.0 mm
11:52 18.9 °C 14.2 °C 1018.5 hPa WSW 4.8 km/h 20.9 km/h 74 % 0.0 mm
12:02 18.6 °C 13.7 °C 1018.5 hPa West 4.8 km/h 20.9 km/h 73 % 0.0 mm
12:12 18.6 °C 13.7 °C 1018.8 hPa WSW 9.7 km/h 17.7 km/h 73 % 0.0 mm
12:17 18.6 °C 13.5 °C 1018.8 hPa SW 8.0 km/h 17.7 km/h 72 % 0.0 mm
12:22 18.6 °C 13.2 °C 1018.8 hPa WSW 8.0 km/h 20.9 km/h 71 % 0.0 mm
12:32 18.8 °C 13.6 °C 1018.8 hPa SSW 6.4 km/h 20.9 km/h 72 % 0.0 mm
12:37 18.9 °C 13.1 °C 1018.5 hPa SSW 11.3 km/h 16.1 km/h 69 % 0.0 mm
12:42 19.1 °C 13.1 °C 1018.8 hPa SW 9.7 km/h 16.1 km/h 68 % 0.0 mm
12:47 19.2 °C 12.5 °C 1018.8 hPa WSW 8.0 km/h 16.1 km/h 65 % 0.0 mm
12:52 19.5 °C 12.7 °C 1018.8 hPa SW 11.3 km/h 20.9 km/h 65 % 0.0 mm
12:57 19.6 °C 12.8 °C 1018.8 hPa SW 3.2 km/h 20.9 km/h 65 % 0.0 mm
13:02 19.9 °C 12.9 °C 1018.8 hPa WSW 9.7 km/h 20.9 km/h 64 % 0.0 mm
13:12 20.2 °C 12.9 °C 1018.8 hPa SSW 9.7 km/h 17.7 km/h 63 % 0.0 mm
13:17 20.4 °C 13.8 °C 1018.8 hPa SW 12.9 km/h 17.7 km/h 66 % 0.0 mm
13:22 20.2 °C 12.2 °C 1018.8 hPa West 4.8 km/h 19.3 km/h 60 % 0.0 mm
13:32 20.0 °C 12.2 °C 1018.5 hPa WSW 11.3 km/h 19.3 km/h 61 % 0.0 mm
13:37 20.3 °C 12.5 °C 1018.5 hPa WSW 8.0 km/h 19.3 km/h 61 % 0.0 mm
13:42 20.4 °C 12.9 °C 1018.5 hPa West 9.7 km/h 19.3 km/h 62 % 0.0 mm
13:52 20.2 °C 12.2 °C 1018.5 hPa WNW 12.9 km/h 19.3 km/h 60 % 0.0 mm
14:02 20.5 °C 12.2 °C 1018.5 hPa WNW 8.0 km/h 20.9 km/h 59 % 0.0 mm
14:12 21.1 °C 13.3 °C 1018.2 hPa SW 8.0 km/h 22.5 km/h 61 % 0.0 mm
14:17 21.2 °C 13.1 °C 1018.2 hPa SW 19.3 km/h 22.5 km/h 60 % 0.0 mm
14:27 21.2 °C 12.6 °C 1018.2 hPa SSW 4.8 km/h 22.5 km/h 58 % 0.0 mm
14:32 21.3 °C 12.7 °C 1018.2 hPa SSW 14.5 km/h 22.5 km/h 58 % 0.0 mm
14:37 21.2 °C 12.3 °C 1018.2 hPa South 9.7 km/h 22.5 km/h 57 % 0.0 mm
14:42 21.1 °C 12.2 °C 1018.2 hPa SSW 6.4 km/h 20.9 km/h 57 % 0.0 mm
14:52 21.3 °C 12.4 °C 1017.8 hPa West 9.7 km/h 20.9 km/h 57 % 0.0 mm
15:02 21.4 °C 12.3 °C 1017.8 hPa WSW 8.0 km/h 24.1 km/h 56 % 0.0 mm
15:12 21.2 °C 12.3 °C 1017.8 hPa SW 11.3 km/h 24.1 km/h 57 % 0.0 mm
15:17 21.5 °C 12.9 °C 1017.8 hPa SW 8.0 km/h 24.1 km/h 58 % 0.0 mm
15:27 21.7 °C 12.5 °C 1017.8 hPa West 9.7 km/h 22.5 km/h 56 % 0.0 mm
15:32 22.2 °C 13.0 °C 1017.8 hPa West 9.7 km/h 20.9 km/h 56 % 0.0 mm
15:42 22.3 °C 12.0 °C 1017.8 hPa West 12.9 km/h 20.9 km/h 52 % 0.0 mm
15:47 22.2 °C 12.2 °C 1017.8 hPa WNW 12.9 km/h 20.9 km/h 53 % 0.0 mm
15:52 22.1 °C 12.9 °C 1017.8 hPa SW 11.3 km/h 20.9 km/h 56 % 0.0 mm
15:57 22.3 °C 12.5 °C 1017.8 hPa SW 12.9 km/h 20.9 km/h 54 % 0.0 mm
16:02 22.2 °C 12.2 °C 1017.8 hPa SSW 11.3 km/h 20.9 km/h 53 % 0.0 mm
16:12 22.1 °C 12.4 °C 1017.8 hPa WNW 11.3 km/h 22.5 km/h 54 % 0.0 mm
16:22 22.6 °C 12.5 °C 1017.8 hPa SW 9.7 km/h 19.3 km/h 53 % 0.0 mm
16:32 22.3 °C 12.5 °C 1017.8 hPa SW 9.7 km/h 24.1 km/h 54 % 0.0 mm
16:42 22.6 °C 12.5 °C 1017.5 hPa SW 12.9 km/h 24.1 km/h 53 % 0.0 mm
16:47 22.6 °C 12.8 °C 1017.5 hPa WNW 4.8 km/h 19.3 km/h 54 % 0.0 mm
16:52 22.6 °C 12.5 °C 1017.5 hPa WSW 6.4 km/h 19.3 km/h 53 % 0.0 mm
17:02 22.4 °C 12.1 °C 1017.5 hPa SW 8.0 km/h 20.9 km/h 52 % 0.0 mm
17:12 22.4 °C 12.6 °C 1017.5 hPa NW 8.0 km/h 20.9 km/h 54 % 0.0 mm
17:17 22.4 °C 12.1 °C 1017.5 hPa West 3.2 km/h 16.1 km/h 52 % 0.0 mm
17:22 22.4 °C 12.3 °C 1017.5 hPa NW 3.2 km/h 16.1 km/h 53 % 0.0 mm
17:32 22.9 °C 13.1 °C 1017.2 hPa West 3.2 km/h 16.1 km/h 54 % 0.0 mm
17:42 23.1 °C 12.7 °C 1017.2 hPa West 4.8 km/h 20.9 km/h 52 % 0.0 mm
17:52 22.7 °C 12.6 °C 1017.2 hPa WSW 1.6 km/h 14.5 km/h 53 % 0.0 mm
17:57 22.7 °C 13.2 °C 1017.2 hPa SSW 3.2 km/h 14.5 km/h 55 % 0.0 mm
18:02 22.8 °C 12.7 °C 1017.2 hPa SW 12.9 km/h 14.5 km/h 53 % 0.0 mm
18:07 22.8 °C 12.7 °C 1017.2 hPa West 4.8 km/h 16.1 km/h 53 % 0.0 mm
18:12 22.7 °C 12.9 °C 1017.2 hPa WSW 6.4 km/h 16.1 km/h 54 % 0.0 mm
18:17 22.8 °C 13.0 °C 1017.2 hPa WSW 3.2 km/h 24.1 km/h 54 % 0.0 mm
18:22 22.9 °C 13.4 °C 1017.2 hPa SW 9.7 km/h 24.1 km/h 55 % 0.0 mm
18:32 23.1 °C 13.0 °C 1017.2 hPa WSW 9.7 km/h 14.5 km/h 53 % 0.0 mm
18:42 22.6 °C 12.8 °C 1017.2 hPa West 6.4 km/h 17.7 km/h 54 % 0.0 mm
18:47 22.4 °C 12.9 °C 1017.2 hPa WSW 4.8 km/h 17.7 km/h 55 % 0.0 mm
18:52 22.4 °C 12.6 °C 1017.2 hPa West 6.4 km/h 17.7 km/h 54 % 0.0 mm
18:57 22.4 °C 12.9 °C 1017.5 hPa West 4.8 km/h 16.1 km/h 55 % 0.0 mm
19:12 22.4 °C 13.2 °C 1017.2 hPa WSW 6.4 km/h 16.1 km/h 56 % 0.0 mm
19:17 22.4 °C 13.2 °C 1017.2 hPa West 8.0 km/h 16.1 km/h 56 % 0.0 mm
19:22 22.5 °C 13.0 °C 1017.5 hPa WSW 6.4 km/h 16.1 km/h 55 % 0.0 mm
19:32 22.5 °C 13.0 °C 1017.2 hPa SW 8.0 km/h 16.1 km/h 55 % 0.0 mm
19:42 22.3 °C 13.1 °C 1017.2 hPa West 11.3 km/h 17.7 km/h 56 % 0.0 mm
19:52 22.2 °C 13.3 °C 1017.2 hPa SW 6.4 km/h 17.7 km/h 57 % 0.0 mm
19:57 22.1 °C 13.2 °C 1017.2 hPa SW 9.7 km/h 17.7 km/h 57 % 0.0 mm
20:02 22.1 °C 13.2 °C 1017.2 hPa SW 9.7 km/h 16.1 km/h 57 % 0.0 mm
20:12 22.1 °C 13.4 °C 1017.2 hPa SW 9.7 km/h 16.1 km/h 58 % 0.0 mm
20:17 21.9 °C 13.3 °C 1017.2 hPa SSW 8.0 km/h 11.3 km/h 58 % 0.0 mm
20:22 21.9 °C 13.3 °C 1017.2 hPa SW 6.4 km/h 14.5 km/h 58 % 0.0 mm
20:32 21.8 °C 13.4 °C 1017.2 hPa WSW 3.2 km/h 14.5 km/h 59 % 0.0 mm
20:42 21.7 °C 13.6 °C 1017.2 hPa SSW 3.2 km/h 14.5 km/h 60 % 0.0 mm
20:52 21.6 °C 13.5 °C 1017.2 hPa SW 4.8 km/h 11.3 km/h 60 % 0.0 mm
20:57 21.6 °C 13.5 °C 1017.2 hPa WSW 1.6 km/h 11.3 km/h 60 % 0.0 mm
21:02 21.5 °C 13.7 °C 1017.2 hPa SSW 4.8 km/h 11.3 km/h 61 % 0.0 mm
21:12 21.3 °C 13.7 °C 1017.2 hPa SW 4.8 km/h 9.7 km/h 62 % 0.0 mm
21:17 21.2 °C 13.4 °C 1017.2 hPa WSW 6.4 km/h 8.0 km/h 61 % 0.0 mm
21:22 21.2 °C 13.6 °C 1017.2 hPa WSW 4.8 km/h 9.7 km/h 62 % 0.0 mm
21:27 21.1 °C 13.5 °C 1017.5 hPa SW 3.2 km/h 9.7 km/h 62 % 0.0 mm
21:32 20.9 °C 13.6 °C 1017.5 hPa SW 1.6 km/h 9.7 km/h 63 % 0.0 mm
21:42 20.8 °C 13.5 °C 1017.5 hPa WSW 3.2 km/h 6.4 km/h 63 % 0.0 mm
21:52 20.7 °C 13.6 °C 1017.5 hPa WSW 6.4 km/h 8.0 km/h 64 % 0.0 mm
21:57 20.6 °C 13.6 °C 1017.5 hPa SW 4.8 km/h 8.0 km/h 64 % 0.0 mm
22:02 20.5 °C 13.7 °C 1017.5 hPa SW 4.8 km/h 8.0 km/h 65 % 0.0 mm
22:12 20.3 °C 13.5 °C 1017.5 hPa SSW 3.2 km/h 8.0 km/h 65 % 0.0 mm
22:17 20.2 °C 13.6 °C 1017.8 hPa SW 4.8 km/h 6.4 km/h 66 % 0.0 mm
22:22 20.2 °C 13.6 °C 1017.8 hPa SSW 3.2 km/h 6.4 km/h 66 % 0.0 mm
22:42 19.8 °C 13.5 °C 1017.8 hPa WSW 4.8 km/h 6.4 km/h 67 % 0.0 mm
22:47 19.8 °C 13.5 °C 1017.8 hPa SSW 3.2 km/h 6.4 km/h 67 % 0.0 mm
22:52 19.8 °C 13.7 °C 1017.8 hPa SW 3.2 km/h 6.4 km/h 68 % 0.0 mm
22:57 19.6 °C 13.5 °C 1017.8 hPa SSW 1.6 km/h 6.4 km/h 68 % 0.0 mm
23:02 19.3 °C 13.9 °C 1017.8 hPa Calm   6.4 km/h 71 % 0.0 mm
23:12 18.6 °C 13.9 °C 1017.8 hPa Calm   6.4 km/h 74 % 0.0 mm
23:22 18.1 °C 13.8 °C 1017.8 hPa Calm   1.6 km/h 76 % 0.0 mm
23:32 17.8 °C 13.7 °C 1017.8 hPa Calm     77 % 0.0 mm
23:42 17.3 °C 13.6 °C 1017.8 hPa Calm     79 % 0.0 mm
23:52 16.9 °C 13.4 °C 1017.8 hPa Calm     80 % 0.0 mm
23:57 16.8 °C 13.3 °C 1017.8 hPa Calm   1.6 km/h 80 % 0.0 mm
Meteo18
Compliments of Weather Underground - 4 mb

Script developed by  Jim McMurry - jmcmurry@mwt.net Adapted for the template by  Wim van der Kuil - Leuven-Template.eu

You find our weather info also at:

European Weather Network

Weather Underground

Equipment we use:

Weather-station
Davis Vue

Weather-program
Meteohub

Weather-server
Raspberry PI 2 B+

Provider
1 and 1

Davis Vue

Meteohub

Raspberry PI 2 B+

1 and 1